WE0DX-1 Weather Reports


time (UTC)temp
F
wind
direction
speed
knots
gust
knots
rain 1hr
in
rain 24hr
in
rain mn
in
humidity
%
barometer
mb
20260906175002 95 109 0.0 0.0 0.00 0.00 0.00 55 1014.9
20260906174501 94 49 0.0 0.0 0.00 0.00 0.00 56 1015.0
20260906173956 94 111 0.0 0.9 0.00 0.00 0.00 56 1015.0
20260906173451 94 72 0.0 0.0 0.00 0.00 0.00 54 1015.1
20260906172951 94 75 0.0 0.0 0.00 0.00 0.00 57 1015.0
20260906172447 95 131 0.0 0.0 0.00 0.00 0.00 55 1015.3
20260906171942 95 61 0.0 0.9 0.00 0.00 0.00 56 1015.3
20260906171437 95 143 0.0 0.0 0.00 0.00 0.00 56 1015.3
20260906170932 94 50 0.0 0.9 0.00 0.00 0.00 58 1015.2
20260906170428 95 114 0.0 0.0 0.00 0.00 0.00 57 1015.4
20260906165925 93 81 0.0 0.0 0.00 0.00 0.00 58 1015.4
20260906165424 94 39 0.0 1.7 0.00 0.00 0.00 57 1015.7
20260906164920 94 110 0.0 0.0 0.00 0.00 0.00 58 1015.7
20260906164418 94 100 0.0 0.0 0.00 0.00 0.00 59 1015.7
20260906163915 94 86 0.0 0.0 0.00 0.00 0.00 59 1015.6
20260906163410 94 66 0.0 0.0 0.00 0.00 0.00 58 1015.6
20260906162908 92 144 0.0 0.0 0.00 0.00 0.00 59 1015.7
20260906162407 92 71 0.0 0.0 0.00 0.00 0.00 59 1015.7
20260906161903 91 122 0.0 0.0 0.00 0.00 0.00 61 1015.8
20260906161401 91 174 0.0 0.0 0.00 0.00 0.00 62 1015.7
20260906160901 91 71 0.0 0.0 0.00 0.00 0.00 62 1015.8
20260906160355 91 69 0.9 1.7 0.00 0.00 0.00 61 1015.9
20260906155853 91 166 0.0 0.0 0.00 0.00 0.00 63 1015.7
20260906155347 91 103 0.0 0.0 0.00 0.00 0.00 63 1015.8
20260906154844 90 70 0.0 0.0 0.00 0.00 0.00 64 1015.7
20260906154337 90 47 0.0 0.9 0.00 0.00 0.00 63 1015.6
20260906153836 90 94 0.0 0.0 0.00 0.00 0.00 64 1015.4
20260906153336 90 97 0.0 0.9 0.00 0.00 0.00 65 1015.3
20260906152831 89 119 0.0 0.0 0.00 0.00 0.00 67 1015.4
20260906152326 89 75 0.0 0.0 0.00 0.00 0.00 67 1015.5
20260906151825 88 120 0.0 0.0 0.00 0.00 0.00 67 1015.4
20260906151321 87 65 0.0 0.0 0.00 0.00 0.00 69 1015.5
20260906150816 87 114 0.0 0.0 0.00 0.00 0.00 69 1015.4
20260906150312 88 64 0.0 0.0 0.00 0.00 0.00 70 1015.3
20260906145811 87 129 0.0 0.0 0.00 0.00 0.00 70 1015.6
20260906145309 86 77 0.0 0.0 0.00 0.00 0.00 70 1015.4
20260906144805 85 83 0.0 0.0 0.00 0.00 0.00 72 1015.5
20260906144259 85 65 0.0 0.0 0.00 0.00 0.00 72 1015.5
20260906143759 84 124 0.0 0.0 0.00 0.00 0.00 73 1015.5
20260906143256 84 72 0.9 1.7 0.00 0.00 0.00 73 1015.7
20260906142755 84 57 0.0 0.0 0.00 0.00 0.00 74 1015.8
20260906142251 84 86 0.0 1.7 0.00 0.00 0.00 73 1015.7
20260906141750 84 120 0.0 0.9 0.00 0.00 0.00 73 1015.4
20260906141245 83 92 0.0 0.9 0.00 0.00 0.00 74 1015.5
20260906140744 83 88 0.0 2.6 0.00 0.00 0.00 75 1015.7
20260906140239 83 59 0.0 1.7 0.00 0.00 0.00 74 1015.5
20260906135735 84 72 2.6 2.6 0.00 0.00 0.00 73 1015.7
20260906135232 83 63 1.7 1.7 0.00 0.00 0.00 74 1015.5
20260906134727 82 93 0.0 0.0 0.00 0.00 0.00 75 1015.4
20260906134223 82 70 0.9 1.7 0.00 0.00 0.00 76 1015.5
20260906133718 81 74 0.0 0.0 0.00 0.00 0.00 76 1015.4
20260906133213 81 84 0.0 0.9 0.00 0.00 0.00 77 1015.3
20260906132708 81 119 0.0 0.0 0.00 0.00 0.00 77 1015.3
20260906132204 80 68 0.0 0.9 0.00 0.00 0.00 77 1015.2
20260906131700 80 70 0.0 0.9 0.00 0.00 0.00 78 1015.2
20260906131154 80 89 0.0 0.0 0.00 0.00 0.00 79 1014.9
20260906130650 80 73 0.0 0.9 0.00 0.00 0.00 79 1014.9
20260906130145 80 59 0.0 0.0 0.00 0.00 0.00 79 1015.0
20260906125642 79 53 0.0 0.0 0.00 0.00 0.00 79 1015.0
20260906125136 79 73 0.0 0.0 0.00 0.00 0.00 79 1014.9
20260906124632 79 58 0.0 0.0 0.00 0.00 0.00 80 1014.8
20260906124127 79 54 0.0 0.9 0.00 0.00 0.00 80 1014.8
20260906123626 79 76 0.0 0.0 0.00 0.00 0.00 80 1014.8
20260906123121 78 71 0.0 0.0 0.00 0.00 0.00 80 1014.6
20260906122621 78 72 0.0 0.0 0.00 0.00 0.00 80 1014.7
20260906122116 78 75 0.0 0.9 0.00 0.00 0.00 81 1014.6
20260906121612 78 69 0.0 0.0 0.00 0.00 0.00 81 1014.4
20260906121109 78 79 0.0 0.0 0.00 0.00 0.00 81 1014.5
20260906120604 78 84 0.0 0.0 0.00 0.00 0.00 81 1014.4
20260906120101 78 85 0.0 0.0 0.00 0.00 0.00 81 1014.6
20260906115600 78 75 0.0 0.0 0.00 0.00 0.00 81 1014.3
20260906115055 78 65 0.0 0.0 0.00 0.00 0.00 81 1014.4
20260906114549 78 75 0.0 0.0 0.00 0.00 0.00 81 1014.3
20260906114045 78 72 0.0 0.0 0.00 0.00 0.00 82 1014.2
20260906113545 77 76 0.0 0.0 0.00 0.00 0.00 82 1014.2
20260906113040 77 74 0.0 0.0 0.00 0.00 0.00 82 1014.1
20260906112540 77 74 0.0 0.0 0.00 0.00 0.00 82 1014.1
20260906112037 77 73 0.0 0.0 0.00 0.00 0.00 82 1014.1
20260906111536 77 68 0.0 0.0 0.00 0.00 0.00 83 1014.0
20260906111031 77 80 0.0 0.0 0.00 0.00 0.00 83 1014.0
20260906110525 77 68 0.0 0.0 0.00 0.00 0.00 83 1014.1
20260906110025 77 79 0.0 0.0 0.00 0.00 0.00 83 1013.9
20260906105520 77 77 0.0 0.0 0.00 0.00 0.00 83 1014.0
20260906105016 78 79 0.0 0.0 0.00 0.00 0.00 82 1013.9
20260906104515 78 73 0.0 0.0 0.00 0.00 0.00 83 1013.9
20260906104015 78 87 0.0 0.0 0.00 0.00 0.00 82 1013.8
20260906103513 78 70 0.0 0.0 0.00 0.00 0.00 82 1013.8
20260906103009 78 68 0.0 0.0 0.00 0.00 0.00 81 1013.9
20260906102508 78 78 0.0 0.0 0.00 0.00 0.00 81 1013.8
20260906102003 78 78 0.0 0.0 0.00 0.00 0.00 80 1014.3
20260906101457 79 67 0.0 0.0 0.00 0.00 0.00 80 1013.9
20260906100953 79 63 0.0 0.0 0.00 0.00 0.00 80 1014.2
20260906100448 79 70 0.0 0.0 0.00 0.00 0.00 79 1014.1
20260906095948 79 50 0.0 0.0 0.00 0.00 0.00 79 1013.8
20260906095443 79 72 0.0 0.0 0.00 0.00 0.00 79 1014.0
20260906094938 79 70 0.0 0.0 0.00 0.00 0.00 78 1013.9
20260906094433 79 69 0.0 0.0 0.00 0.00 0.00 78 1013.7
20260906093929 79 82 0.0 0.0 0.00 0.00 0.00 78 1014.0
20260906093425 79 79 0.0 0.0 0.00 0.00 0.00 78 1013.7
20260906092925 79 76 0.0 0.0 0.00 0.00 0.00 78 1013.7
20260906092424 79 77 0.0 0.0 0.00 0.00 0.00 77 1013.7
20260906091920 79 75 0.0 0.0 0.00 0.00 0.00 77 1013.6
20260906091416 80 73 0.0 0.0 0.00 0.00 0.00 77 1013.8
20260906090912 80 86 0.0 0.0 0.00 0.00 0.00 77 1013.5
20260906090411 79 78 0.0 0.0 0.00 0.00 0.00 77 1013.6
20260906085906 79 73 0.0 0.0 0.00 0.00 0.00 77 1013.4
20260906085405 79 75 0.0 0.0 0.00 0.00 0.00 77 1013.3
20260906084900 80 88 0.0 0.0 0.00 0.00 0.00 77 1013.5
20260906084400 80 88 0.0 0.0 0.00 0.00 0.00 76 1013.4
20260906083854 80 89 0.0 0.0 0.00 0.00 0.00 76 1013.1
20260906083349 80 85 0.0 0.0 0.00 0.00 0.00 76 1013.4
20260906082849 80 84 0.0 0.0 0.00 0.00 0.00 75 1013.4
20260906082344 80 87 0.0 0.0 0.00 0.00 0.00 75 1013.1
20260906081841 80 87 0.0 0.0 0.00 0.00 0.00 74 1013.4
20260906081336 81 85 0.0 0.0 0.00 0.00 0.00 73 1013.3
20260906080832 81 90 0.0 0.0 0.00 0.00 0.00 72 1013.3
20260906080328 81 103 0.0 0.0 0.00 0.00 0.00 72 1013.4
20260906075827 81 89 0.0 0.0 0.00 0.00 0.00 72 1013.3
20260906075322 81 78 0.0 0.0 0.00 0.00 0.00 72 1013.3
20260906074818 81 79 0.0 0.0 0.00 0.00 0.00 71 1013.4
20260906074317 81 73 0.0 0.0 0.00 0.00 0.00 71 1013.4
20260906073816 81 69 0.0 0.0 0.00 0.00 0.00 71 1013.5
20260906073311 81 69 0.0 0.0 0.00 0.00 0.00 71 1013.2
20260906072808 82 70 0.0 0.0 0.00 0.00 0.00 71 1013.3
20260906072305 82 75 0.0 0.0 0.00 0.00 0.00 70 1013.3
20260906071759 81 57 0.0 0.0 0.00 0.00 0.00 71 1013.3
20260906071259 81 71 0.0 0.0 0.00 0.00 0.00 71 1013.6
20260906070755 82 65 0.0 0.0 0.00 0.00 0.00 71 1013.3
20260906070250 82 70 0.0 0.0 0.00 0.00 0.00 71 1013.4
20260906065749 82 67 0.0 0.0 0.00 0.00 0.00 70 1013.5
20260906065245 82 78 0.0 0.0 0.00 0.00 0.00 71 1013.5
20260906064741 82 80 0.0 0.0 0.00 0.00 0.00 69 1013.7
20260906064236 83 73 0.0 0.0 0.00 0.00 0.00 69 1013.6
20260906063731 83 70 0.0 0.0 0.00 0.00 0.00 68 1013.8
20260906063227 83 63 0.0 0.0 0.00 0.00 0.00 68 1013.8
20260906062722 83 69 0.0 0.0 0.00 0.00 0.00 68 1013.8
20260906062221 83 68 0.0 0.0 0.00 0.00 0.00 68 1013.8
20260906061717 83 57 0.0 0.0 0.00 0.00 0.00 68 1013.8
20260906061213 83 68 0.0 0.0 0.00 0.00 0.00 68 1013.8
20260906060708 83 69 0.0 0.0 0.00 0.00 0.00 67 1013.7
20260906060206 83 76 0.0 0.0 0.00 0.00 0.00 67 1013.7
20260906055655 83 78 0.0 0.0 0.00 0.00 0.00 67 1013.8
20260906055151 84 77 0.0 0.0 0.00 0.00 0.00 67 1013.8
20260906054646 84 90 0.0 0.0 0.00 0.00 0.00 66 1014.0
20260906054141 84 88 0.0 0.0 0.00 0.00 0.00 67 1013.7
20260906053637 84 76 0.0 0.0 0.00 0.00 0.00 66 1014.2
20260906053132 84 71 0.0 0.0 0.00 0.00 0.00 67 1014.0
20260906052627 83 71 0.0 0.0 0.00 0.00 0.00 67 1013.7
20260906052124 84 71 0.0 0.0 0.00 0.00 0.00 67 1014.1
20260906051620 84 71 0.0 0.0 0.00 0.00 0.00 66 1014.0
20260906051115 84 71 0.0 0.0 0.00 0.00 0.00 66 1013.7
20260906050610 84 70 0.0 0.0 0.00 0.00 0.00 66 1013.7
20260906050105 84 77 0.0 0.0 0.00 0.00 0.00 66 1013.9
20260906045603 84 83 0.0 0.0 0.00 0.00 0.00 65 1013.8
20260906045059 84 76 0.0 0.0 0.00 0.00 0.00 65 1013.8
20260906044554 84 85 0.0 0.0 0.00 0.00 0.00 65 1013.6
20260906044049 84 94 0.0 0.0 0.00 0.00 0.00 65 1013.6
20260906043545 84 76 0.0 0.0 0.00 0.00 0.00 65 1013.7
20260906043041 85 89 0.0 0.0 0.00 0.00 0.00 64 1013.8
20260906042540 85 86 0.0 0.0 0.00 0.00 0.00 64 1013.8
20260906042035 85 69 0.0 0.0 0.00 0.00 0.00 64 1013.6
20260906041531 85 73 0.0 0.0 0.00 0.00 0.00 64 1013.6
20260906041025 85 73 0.0 0.0 0.00 0.00 0.00 64 1013.7
20260906040520 85 73 0.0 0.0 0.00 0.00 0.00 63 1013.6
20260906040016 85 73 0.0 0.0 0.00 0.00 0.00 64 1013.8
20260906035510 86 73 0.0 0.0 0.00 0.00 0.00 63 1013.5
20260906035007 86 73 0.0 0.0 0.00 0.00 0.00 62 1013.5
20260906034501 86 73 0.0 0.0 0.00 0.00 0.00 61 1013.4
20260906033956 86 71 0.0 0.0 0.00 0.00 0.00 62 1013.4
20260906033450 86 69 0.0 0.0 0.00 0.00 0.00 61 1013.2
20260906032946 86 72 0.0 0.0 0.00 0.00 0.00 61 1013.2
20260906032442 86 70 0.0 0.0 0.00 0.00 0.00 61 1013.2
20260906031936 86 77 0.0 0.0 0.00 0.00 0.00 62 1013.4
20260906031432 86 78 0.0 0.0 0.00 0.00 0.00 61 1013.2
20260906030927 87 70 0.0 0.0 0.00 0.00 0.00 61 1013.3
20260906030422 87 70 0.0 0.0 0.00 0.00 0.00 61 1013.2
20260906025917 87 72 0.0 0.0 0.00 0.00 0.00 61 1013.0
20260906025411 87 73 0.0 0.0 0.00 0.00 0.00 61 1013.0
20260906024910 87 70 0.0 0.0 0.00 0.00 0.00 61 1012.7
20260906024409 87 71 0.0 0.0 0.00 0.00 0.00 61 1013.0
20260906023904 87 71 0.0 0.9 0.00 0.00 0.00 61 1012.8
20260906023400 88 69 0.0 0.0 0.00 0.00 0.00 61 1012.8
20260906022855 88 64 0.0 0.0 0.00 0.00 0.00 60 1012.7
20260906022350 88 60 0.0 0.9 0.00 0.00 0.00 60 1012.7
20260906021846 88 64 0.0 0.9 0.00 0.00 0.00 61 1012.3
20260906021345 88 62 0.0 0.0 0.00 0.00 0.00 60 1012.5
20260906020840 88 73 0.0 0.0 0.00 0.00 0.00 60 1012.5
20260906020339 88 60 0.0 0.0 0.00 0.00 0.00 60 1012.5
20260906015834 88 67 0.0 0.0 0.00 0.00 0.00 61 1012.3
20260906015332 88 77 0.0 0.0 0.00 0.00 0.00 61 1012.3
20260906014827 88 48 0.0 0.0 0.00 0.00 0.00 60 1012.4
20260906014322 88 69 0.0 0.0 0.00 0.00 0.00 60 1011.9
20260906013819 89 71 0.0 0.0 0.00 0.00 0.00 60 1012.2
20260906013313 89 48 0.0 0.0 0.00 0.00 0.00 60 1012.0
20260906012809 89 75 0.0 0.0 0.00 0.00 0.00 60 1012.0
20260906012309 89 71 0.0 0.0 0.00 0.00 0.00 60 1011.9
20260906011804 89 67 0.0 0.0 0.00 0.00 0.00 61 1012.0
20260906011304 89 64 0.0 0.0 0.00 0.00 0.00 60 1011.9
20260906010800 89 75 0.0 0.0 0.00 0.00 0.00 60 1012.2
20260906010256 90 71 0.0 0.0 0.00 0.00 0.00 59 1011.8
20260906005751 90 68 0.0 0.0 0.00 0.00 0.00 60 1011.8
20260906005250 90 64 0.0 0.0 0.00 0.00 0.00 59 1012.1
20260906004749 90 67 0.0 0.0 0.00 0.00 0.00 59 1012.0
20260906004244 91 68 0.0 0.0 0.00 0.00 0.00 57 1012.1
20260906003739 91 68 0.0 0.0 0.00 0.00 0.00 56 1012.1
20260906003235 91 68 0.0 0.0 0.00 0.00 0.00 56 1012.0
20260906002734 92 68 0.0 0.0 0.00 0.00 0.00 55 1012.0
20260906002229 92 68 0.0 0.0 0.00 0.00 0.00 55 1011.9
20260906001725 92 68 0.0 0.0 0.00 0.00 0.00 55 1011.8
20260906001220 92 68 0.0 0.0 0.00 0.00 0.00 56 1012.0
20260906000715 92 68 0.0 0.0 0.00 0.00 0.00 55 1012.0
20260906000212 93 68 0.0 0.0 0.00 0.00 0.00 56 1012.0
20260905235709 93 68 0.0 0.0 0.00 0.00 0.00 55 1012.0
20260905235204 93 69 0.0 0.0 0.00 0.00 0.00 53 1011.7
20260905234700 93 69 0.0 0.0 0.00 0.00 0.00 54 1011.9
20260905234155 93 68 0.0 0.0 0.00 0.00 0.00 53 1011.9
20260905233650 94 69 0.0 0.0 0.00 0.00 0.00 54 1011.8
20260905233149 94 69 0.0 0.0 0.00 0.00 0.00 53 1011.7
20260905232644 94 72 0.0 0.0 0.00 0.00 0.00 51 1011.6
20260905232140 95 84 0.0 0.0 0.00 0.00 0.00 52 1011.6
20260905231635 95 86 0.0 0.0 0.00 0.00 0.00 51 1011.6
20260905231132 95 68 0.0 0.0 0.00 0.00 0.00 50 1011.7
20260905230627 95 68 0.0 0.0 0.00 0.00 0.00 49 1011.8
20260905230125 95 68 0.0 0.0 0.00 0.00 0.00 48 1011.8
20260905225624 96 68 0.0 0.0 0.00 0.00 0.00 46 1011.8
20260905225120 96 71 0.0 0.0 0.00 0.00 0.00 48 1011.5
20260905224614 96 68 0.0 0.0 0.00 0.00 0.00 46 1011.6
20260905224113 96 86 0.0 0.0 0.00 0.00 0.00 49 1011.7
20260905223611 96 86 0.0 0.0 0.00 0.00 0.00 47 1011.7
20260905223107 96 74 0.0 0.0 0.00 0.00 0.00 46 1011.6
20260905222607 96 106 0.0 0.0 0.00 0.00 0.00 47 1011.6
20260905222102 96 140 0.0 0.0 0.00 0.00 0.00 46 1012.1
20260905221558 96 103 0.0 0.0 0.00 0.00 0.00 46 1011.8
20260905221054 96 75 0.0 1.7 0.00 0.00 0.00 46 1011.6
20260905220549 96 68 0.9 1.7 0.00 0.00 0.00 46 1011.8
20260905220045 96 36 1.7 2.6 0.00 0.00 0.00 46 1011.9
20260905215544 96 54 0.9 2.6 0.00 0.00 0.00 46 1011.8
20260905215041 97 61 0.9 1.7 0.00 0.00 0.00 46 1011.9
20260905214537 96 53 0.0 0.0 0.00 0.00 0.00 45 1012.0
20260905214031 96 109 0.0 0.0 0.00 0.00 0.00 48 1012.1
20260905213527 96 50 0.9 2.6 0.00 0.00 0.00 46 1012.3
20260905213022 97 45 0.0 0.0 0.00 0.00 0.00 45 1012.3
20260905212517 97 71 0.0 0.0 0.00 0.00 0.00 48 1012.4
20260905212017 97 65 0.0 0.0 0.00 0.00 0.00 47 1012.4
20260905211512 97 72 0.0 0.0 0.00 0.00 0.00 47 1012.5
20260905211008 96 70 0.0 1.7 0.00 0.00 0.00 46 1012.8
20260905210503 96 71 0.0 0.9 0.00 0.00 0.00 47 1012.8
20260905210003 97 67 0.0 0.0 0.00 0.00 0.00 47 1012.9
20260905205457 96 54 0.0 0.9 0.00 0.00 0.00 47 1012.9
20260905204956 96 71 0.0 0.9 0.00 0.00 0.00 47 1012.8
20260905204451 96 48 1.7 2.6 0.00 0.00 0.00 47 1013.0
20260905203951 97 20 0.9 1.7 0.00 0.00 0.00 46 1013.0
20260905203446 97 134 0.9 0.9 0.00 0.00 0.00 46 1013.2
20260905202942 97 71 0.0 0.9 0.00 0.00 0.00 46 1013.0
20260905202437 97 66 0.0 0.0 0.00 0.00 0.00 46 1013.1
20260905201932 98 68 0.9 0.9 0.00 0.00 0.00 45 1013.2
20260905201427 98 98 0.0 0.0 0.00 0.00 0.00 45 1013.1
20260905200927 98 75 0.0 0.0 0.00 0.00 0.00 46 1013.5
20260905200423 98 77 0.0 0.0 0.00 0.00 0.00 47 1013.4
20260905195921 97 71 0.0 0.0 0.00 0.00 0.00 48 1013.3
20260905195416 97 72 0.0 0.0 0.00 0.00 0.00 47 1013.5
20260905194912 96 74 0.0 0.0 0.00 0.00 0.00 48 1013.5
20260905194406 96 56 0.0 1.7 0.00 0.00 0.00 48 1013.6
20260905193905 96 67 0.9 1.7 0.00 0.00 0.00 49 1013.7
20260905193400 96 47 0.0 0.0 0.00 0.00 0.00 50 1013.8
20260905192856 95 61 0.0 0.9 0.00 0.00 0.00 51 1013.9
20260905192352 96 65 0.9 2.6 0.00 0.00 0.00 51 1013.9
20260905191851 95 28 0.0 0.0 0.00 0.00 0.00 51 1013.8
20260905191351 95 64 0.0 0.0 0.00 0.00 0.00 51 1013.9
20260905190849 95 69 0.0 0.0 0.00 0.00 0.00 50 1013.8
20260905190342 95 50 0.0 0.0 0.00 0.00 0.00 52 1014.1
20260905185841 96 74 0.0 0.0 0.00 0.00 0.00 51 1014.0
20260905185337 95 75 0.0 0.0 0.00 0.00 0.00 52 1013.9
20260905184835 95 80 0.0 0.0 0.00 0.00 0.00 51 1014.1
20260905184335 96 80 0.0 0.0 0.00 0.00 0.00 51 1014.0
20260905183833 96 80 0.0 0.0 0.00 0.00 0.00 51 1014.1
20260905183329 96 89 0.0 0.0 0.00 0.00 0.00 49 1014.1
20260905182830 97 93 0.0 0.0 0.00 0.00 0.00 47 1014.2
20260905182329 96 105 0.0 0.0 0.00 0.00 0.00 49 1014.4
20260905181825 96 89 0.0 0.0 0.00 0.00 0.00 48 1014.2
20260905181318 96 101 0.0 0.0 0.00 0.00 0.00 49 1014.4
20260905180817 98 127 0.0 0.0 0.00 0.00 0.00 48 1014.5
20260905180313 97 71 0.0 0.0 0.00 0.00 0.00 50 1014.6
20260905175808 96 82 0.0 0.0 0.00 0.00 0.00 52 1014.7
20260905175306 97 74 0.0 0.0 0.00 0.00 0.00 52 1014.6